Tracking 20228 objects as of 17-Jan-2020
HD Live streaming from Space Station
objects crossing your sky now

COSMOS 2024 (ETALON 2)

Track COSMOS 2024 (ETALON 2) now!
COSMOS 2024 (ETALON 2) is classified as:


NORAD ID: 20026
Int'l Code: 1989-039C
Perigee: 19,082.7 km
Apogee: 19,175.1 km
Inclination: 65.4 °
Period: 675.4 minutes
Semi major axis: 25499 km
RCS: 1.2589 m2 (large)
Launch date: May 31, 1989
Source: Commonwealth of Independent States (former USSR) (CIS)
Launch site: TYURATAM MISSILE AND SPACE COMPLEX (TTMTR)
aabbcc
Your satellite tracking list
Your tracking list is empty




NASA's NSSDC Master Catalog

Two Line Element Set (TLE):
1 20026U 89039C   20016.19178697 -.00000032 +00000-0 +00000-0 0  9992
2 20026 065.4433 030.3407 0018124 222.0203 093.8093 02.13204230238520
Source of the keplerian elements: AFSPC